Regional Weather Roundup
Issued by NWS

Home | Current Version | Previous Version | Text Only | Print | Product List | Glossary On
Versions: 1 2 3 4 5 6 7 8 9 10 11 12 13 14 15 16 17 18 19 20 21 22 23 24 25 26 27 28 29 30 31 32 33 34 35 36 37 38 39 40 41 42 43 44 45 46 47 48 49 50
000
ASUS45 KTFX 250319
RWRMT
MONTANA HOURLY WEATHER ROUNDUP
NATIONAL WEATHER SERVICE GREAT FALLS MT
919 PM MDT THU APR 24 2014

NOTE: "FAIR" INDICATES FEW OR NO CLOUDS BELOW 12000 FEET WITH NO
SIGNIFICANT WEATHER AND/OR OBSTRUCTIONS TO VISIBILITY.

* THESE STATIONS ARE NOT UNDER NWS QUALITY CONTROL. THEY DO NOT
   REPORT WEATHER SUCH AS PRECIPITATION OR FOG.

MTZ001>007-043-250400-
WEST OF THE DIVIDE
CITY           SKY/WX    TMP DP  RH WIND       PRES   REMARKS
KALISPELL      CLOUDY    45  41  86 SE8       29.80S
MISSOULA       CLOUDY    46  37  71 CALM      29.88R
BUTTE          LGT RAIN  43  32  65 W14G21    29.85R
MULLAN PASS    FOG       32  30  92 VRB6      29.81R VSB M1/4 WCI  26
* ESSEX        N/A       39  38  96 NW3        N/A
* LINCOLN      N/A       43  37  79 SW3G10     N/A
* LOOKOUT PASS N/A       36  36 100 E1         N/A
* POLSON       N/A       42  39  89 S2         N/A
* SEELEY LAKE  N/A       43  38  83 NE3        N/A
* THOMP F APT  CLOUDY    39  35  86 N4         N/A
$$

MTZ008-052>055-250400-
SOUTHWEST MONTANA
CITY           SKY/WX    TMP DP  RH WIND       PRES   REMARKS
BOZEMAN        CLEAR     39  34  82 E9        29.84S WCI  33
DILLON         MOCLDY    45  34  65 SE14      29.83R
W YELLOWSTONE  N/A       33  33 100 SW3G11     N/A
* THREE FORKS  CLEAR     48  39  71 SW7        N/A
* BOULDER HILL N/A       42  24  49 W1         N/A
* MONIDA PASS  N/A       39  30  70 W4G11      N/A
* RAYNOLDS PAS N/A       33  21  61 SW4        N/A
* WHITEHALL    N/A       51  30  45 SW10G16    N/A
* WISE RIVER   N/A       40  26  57 NW16G23    N/A   WCI  32
$$

MTZ009>010-012-014-046-048-049-054-250400-
EAST SLOPES AND CENTRAL MONTANA
CITY           SKY/WX    TMP DP  RH WIND       PRES   REMARKS
CUT BANK       MOCLDY    45  30  56 W14       29.72S
GREAT FALLS    PTCLDY    45  34  65 SW13      29.76R
HELENA         PTCLDY    48  36  63 SW7       29.81R
MALMSTROM AFB  PTCLDY    48  32  54 S15       29.73R
* CONRAD       MOCLDY    48  30  50 W9         N/A
* DEARBORN     N/A       51  30  45 S7G15      N/A
* EAST GLACIER N/A       41  30  65 W17G24     N/A
* MONARCH      N/A       43  21  42 W15G22     N/A
* PENDROY      N/A       42  27  55 W1         N/A
* ROGERS PASS  N/A       40  30  68 SE8G16     N/A   WCI  35
* SAINT MARY   N/A       42  29  60 S7G20      N/A
* SWEET GRASS  N/A       47  28  48 W10        N/A
* WHITE SULPH  N/A       39  31  73 NW4G9      N/A
$$

MTZ011-013-016-021-035-040-045-047-050-051-250400-
NORTH CENTRAL MONTANA
CITY           SKY/WX    TMP DP  RH WIND       PRES   REMARKS
HAVRE          CLOUDY    52  37  57 SW5       29.70R
LEWISTOWN      MOCLDY    43  36  76 W6        29.77R
* CHINOOK      MOCLDY    50  34  54 CALM      29.70S
* FORT BENTON  PTCLDY    48  36  63 W5        29.74R
* CHESTER      N/A       49  30  48 W8         N/A
* DENTON       N/A       45  31  58 SW9        N/A
* GEYSER       N/A       41  29  62 SW3        N/A
* JUDITH GAP   N/A       41  32  70 SW15       N/A
* LOMA         N/A       51  40  66 W4         N/A
$$

MTZ017>020-022>027-061-062-250400-
NORTHEAST MONTANA
CITY           SKY/WX    TMP DP  RH WIND       PRES   REMARKS
GLASGOW        CLOUDY    54  30  40 W10       29.71R
GLENDIVE       CLOUDY    48  30  50 W9        29.76S
JORDAN         MOCLDY    46  34  63 CALM      29.74R
SIDNEY         MOCLDY    45  25  45 CALM      29.74R
WOLF POINT     MOCLDY    46  21  37 W3        29.71R
* BEAVER HILL  N/A       54  23  30 W8G16      N/A
* CIRCLE       N/A       52  31  45 N/A        N/A
* LINDSAY DVD  N/A       49  30  48 SW8        N/A
* NAVAJO       N/A       48  26  42 SW1        N/A
* SACO         N/A       52  35  52 SW8        N/A
$$

MTZ028>042-056>058-250400-
SOUTHCENTRAL AND SOUTHEAST MONTANA
CITY           SKY/WX    TMP DP  RH WIND       PRES   REMARKS
BAKER          CLOUDY    54  28  37 W12       29.78R
BILLINGS       MOCLDY    52  34  50 NW20G32   29.80R
LIVINGSTON     PTCLDY    43 N/A N/A NW13      29.84R
MILES CITY     CLOUDY    54  34  47 W3        29.76R
* LAUREL APT   MOCLDY    55  30  39 W22G29     N/A
* ROUNDUP APT  MOCLDY    54  30  40 W18G32     N/A
* HYSHAM       N/A       48  29  48 N/A        N/A
* REED POINT   N/A       50  36  59 W16G23     N/A
* ROSCOE HILL  N/A       48  19  32 W4G14      N/A
$$

REGIONAL REPORTS...DAKOTAS
CITY           SKY/WX    TMP DP  RH WIND       PRES   REMARKS
WILLISTON      PTCLDY    41  27  58 CALM      29.71R
DICKINSON      MOCLDY    50  23  35 NE3       29.73R
CROSBY         N/A       37  32  82 N/A        N/A
TIOGA          PTCLDY    39  28  65 CALM      29.75R
WATFORD CITY   CLEAR     36  25  64 CALM      29.71R
BISMARCK       CLEAR     43  30  60 CALM      29.75R
GRAND FORKS    FOG       39  39 100 E5        29.72S WCI  35
FARGO          MOCLDY    43  41  93 CALM      29.70R
BUFFALO SD     CLOUDY    50  27  41 NW8       29.71R
RAPID CITY     CLOUDY    45  28  51 NE7       29.79R
$$

REGIONAL REPORTS...WYOMING/IDAHO/WASHINGTON
CITY           SKY/WX    TMP DP  RH WIND       PRES   REMARKS
GILLETTE       MOCLDY    41  27  58 CALM      29.79R
SHERIDAN       MOCLDY    46  32  58 W9        29.80R
CODY           PTCLDY    46  28  50 W10       29.86R
YELLOWSTONE LA CLOUDY    30  30 100 CALM      29.96R
SALMON         CLOUDY    46  34  63 SW12      29.87R
MULLAN PASS    FOG       32  30  92 VRB6      29.81S VSB M1/4 WCI  26
SAND POINT     MOCLDY    45  43  93 N12       29.80R
SPOKANE        PTCLDY    52  34  50 SW13      29.77R
$$

REGIONAL REPORTS...ALBERTA
CITY           SKY/WX    TMP DP  RH WIND       PRES   REMARKS
CALGARY        MOCLDY    46  25  44 E13       29.65R
LETHBRIDGE     MOCLDY    48  30  50 W13       29.67R
MEDICINE HAT   CLOUDY    54  21  27 E3        29.67S
EDMONTON       MOCLDY    37  28  70 E5        29.75R WCI  33
WATERTON GATE  N/A       43  30  60 SW18G30    N/A
CARDSTON       N/A       45  32  60 SW9        N/A
MILK RIVER     N/A       45  28  51 SW6        N/A
$$

REGIONAL REPORTS...SASKATCHEWAN
CITY           SKY/WX    TMP DP  RH WIND       PRES   REMARKS
SWIFT CURRENT  CLEAR     39  30  70 NE9       29.69R WCI  33
REGINA         FAIR      41  36  82 E8        29.71R
VAL MARIE      N/A       45  28  51 W7         N/A
ASSINIBOIA     N/A       39  25  57 N9         N/A   WCI  33

$$




USA.gov is the U.S. government's official web portal to all federal, state and local government web resources and services.